Regional Weather Roundup
Issued by NWS

Home | Current Version | Previous Version | Graphics & Text | Print | Product List | Glossary On
Versions: 1 2 3 4 5 6 7 8 9 10 11 12 13 14 15 16 17 18 19 20 21 22 23 24 25 26 27 28 29 30 31 32 33 34 35 36 37 38 39 40 41 42 43 44 45 46 47 48 49 50
000
ASUS43 KIND 261259
RWRIN

WEATHER ROUNDUP FOR INDIANA
NATIONAL WEATHER SERVICE INDIANAPOLIS IN
900 AM EDT WED APR 26 2017

NOTE: "FAIR" INDICATES FEW OR NO CLOUDS BELOW 12,000 FEET WITH NO
SIGNIFICANT WEATHER AND/OR OBSTRUCTIONS TO VISIBILITY.

* - STATION DOES NOT REPORT WEATHER SUCH AS PRECIPITATION OR FOG.

+ - STATION NOT QUALITY CONTROLLED BY THE NATIONAL WEATHER SERVICE.
    USE DATA WITH CAUTION...ESPECIALLY DEWPOINT AND RELATIVE
    HUMIDITY OBSERVATIONS.

INZ001>003-010>013-019-020-261400-
NORTHWEST INDIANA

CITY           SKY/WX    TMP DP  RH WIND       PRES   REMARKS
GARY /AIRPORT/ CLOUDY    68  54  60 SE14      29.49F
KNOX *+        CLOUDY    64  36  34 S13G23    29.57R
MONTICELLO +   CLOUDY    65  55  68 S10G17    29.57R

$$

LMZ046-743>745-261400-
SOUTHERN LAKE MICHIGAN

STATION/POSITION TIME  TEMP    WIND        PRES    WAVE
                       AIR SEA DIR/SP/G            HT
                 (UTC) (F)     (DEG/KT/KT) (MB)    (FT)
BURNS HARBOR     1240   66     180/ 14/ 20 1000.7R
MICHIGAN CITY    1230   65     160/ 12/ 16   N/A

$$

INZ004-005-014>016-021>024-261400-
NORTH CENTRAL INDIANA

CITY           SKY/WX    TMP DP  RH WIND       PRES   REMARKS
GOSHEN         CLOUDY    65  54  67 S14       29.59R
SOUTH BEND     CLOUDY    64  56  75 S10       29.58R

$$

INZ006>009-017-018-025>027-261400-
NORTHEAST INDIANA

CITY           SKY/WX    TMP DP  RH WIND       PRES   REMARKS
ANGOLA *+      SUNNY     61  57  88 SE13      29.62S
FORT WAYNE     PTSUNNY   65  57  75 S14       29.64R
KENDALLVILLE + MOSUNNY   62  57  82 S9        29.63R

$$

INZ028-029-035-036-043>045-051>053-261400-
WEST CENTRAL INDIANA

CITY           SKY/WX    TMP DP  RH WIND       PRES   REMARKS
CRAWFORDSVL +  PTSUNNY   62  56  80 S14       29.59F
GREENCASTLE +  CLOUDY    63  55  77 S9        29.61F
LAFAYETTE      PTSUNNY   64  57  78 VRB6      29.56F
TERRE HAUTE    CLOUDY    66  55  67 S13       29.59F

$$

INZ030>032-037>040-046>048-054>057-064-065-261400-
CENTRAL INDIANA

CITY           SKY/WX    TMP DP  RH WIND       PRES   REMARKS
ANDERSON       SUNNY     64  55  72 S12       29.67
COLUMBUS       SUNNY     63  55  77 S10       29.68R
INDIANAPOLIS   CLOUDY    64  56  75 SE12      29.62S
-EAGLE CREEK   PTSUNNY   65  56  72 S8        29.63R
KOKOMO +       CLOUDY    65  56  72 S16G23    29.63R
SHELBYVILLE    CLOUDY    67  55  65 S15       29.67R

$$

INZ033-034-041-042-049-050-058-059-261400-
EAST CENTRAL INDIANA

CITY           SKY/WX    TMP DP  RH WIND       PRES   REMARKS
MUNCIE         CLOUDY    66  55  67 S12       29.66R
RICHMOND +     SUNNY     63  55  77 S13       29.71R

$$

INZ060-061-067>069-081>083-085>088-261400-
SOUTHWEST INDIANA

CITY           SKY/WX    TMP DP  RH WIND       PRES   REMARKS
EVANSVILLE     PTSUNNY   67  56  67 S8        29.65S
HUNTINGBURG *+ CLOUDY    66  58  75 S13       29.66F

$$

INZ062-063-066-070>080-084-089>092-261400-
SOUTH CENTRAL AND SOUTHEAST INDIANA

CITY           SKY/WX    TMP DP  RH WIND       PRES   REMARKS
BLOOMINGTON    PTSUNNY   65  55  70 S9        29.63F
MADISON *+     SUNNY     63  55  77 S8        29.72R
SEYMOUR +      MOSUNNY   66  57  72 S9        29.69R

$$





USA.gov is the U.S. government's official web portal to all federal, state and local government web resources and services.